Regional Weather Roundup
Issued by NWS Sioux Falls, SD

Home | Current Version | Previous Version | Graphics & Text | Print | Product List | Glossary Off
Versions: 1 2 3 4 5 6 7 8 9 10 11 12 13 14 15 16 17 18 19 20 21 22 23 24 25 26 27 28 29 30 31 32 33 34 35 36 37 38 39 40 41 42 43 44 45 46 47 48 49 50

000
ASUS43 KFSD 092002
RWRFSD

WEATHER ROUNDUP FOR SE SOUTH DAKOTA/SW MINNESOTA/NW IOWA
NATIONAL WEATHER SERVICE SIOUX FALLS SD
200 PM CST TUE FEB 09 2016

NOTE: "FAIR" INDICATES FEW OR NO CLOUDS BELOW 12,000 FEET WITH NO
SIGNIFICANT WEATHER AND OR OBSTRUCTIONS TO VISIBILITY.


SDZ038>040-050-052>070-092100-
SOUTHEAST SOUTH DAKOTA

CITY           SKY/WX    TMP DP  RH WIND       PRES   REMARKS
BROOKINGS      CLOUDY    19   9  65 NW15      30.17F WCI   5
CHAMBERLAIN    NOT AVBL
HURON          CLOUDY    27  11  51 N9        30.24F WCI  18
MADISON        FAIR      19  10  68 NW18G25   30.19F WCI   4
MITCHELL       CLOUDY    28  12  51 N13       30.25F WCI  17
SIOUX FALLS    PTSUNNY   20   8  60 NW15      30.20F WCI   6
WINNER         FAIR      32  10  40 S7        30.21F WCI  26
YANKTON        MOSUNNY   27  10  50 NW21      30.25F WCI  13
$$

MNZ071-072-080-081-089-090-097-098-092100-
SOUTHWEST MINNESOTA

CITY           SKY/WX    TMP DP  RH WIND       PRES   REMARKS
FAIRMONT       SUNNY     16   5  62 NW21      30.10F WCI  -2
JACKSON        SUNNY     16   5  62 NW24G30   30.12F WCI  -3
LUVERNE        CLOUDY    21  10  63 N15G21    30.19F WCI   8
MARSHALL       CLOUDY    16   8  71 N18       30.18F WCI   0
MONTEVIDEO     CLOUDY    18   9  68 N17       30.21F WCI   2
PIPESTONE      SUNNY     19   1  45 N20G28    30.16S WCI   4
REDWOOD FALLS  SUNNY     18   6  59 NW16G30   30.16F WCI   3
TRACY          SUNNY     17   9  71 N20       30.17F WCI   0
WINDOM         SUNNY     16   7  67 NW25      30.12F WCI  -3
WORTHINGTON    CLOUDY    16   3  57 NW23      30.15F WCI  -2
$$

IAZ001>003-012>014-020>022-031-032-NEZ013-014-SDZ071-092100-
NORTHWEST IOWA

CITY           SKY/WX    TMP DP  RH WIND       PRES   REMARKS
ESTHERVILLE    SUNNY     15   7  70 NW23      30.13F WCI  -3
SIOUX CITY     CLOUDY    22   8  55 NW17      30.24F WCI   8
SPENCER        CLOUDY    16   5  62 NW18      30.16F WCI   0
STORM LAKE     CLOUDY    16   7  67 NW21G26   30.16F WCI  -2
$$

ABBREVIATIONS USED IN REMARKS
   TC - TEMPERATURE IN CELSIUS
  WCI - WIND CHILL INDEX
   HX - HEAT INDEX
  VSB - VISIBILITY




USA.gov is the U.S. government's official web portal to all federal, state and local government web resources and services.